RYR27JN LIPQ-EGSS

Flight info

Callsign RYR27JN
Flight time N/A
Altitude 36000
Route RIFEN Y526 ELPEZ P125 URAVA DCT VEKEN DCT UMVEG DCT KPT L608 TEDGO DCT SUNEG L608 ULNOK DCT ADENU L608 LIRSU DCT SOGRI DCT NIK DCT KOZUF DCT IMPOH DCT SASKI L608 SUMUM Y6 TOSVA
Aircraft B738/M-SDE2E3FGHIRWXY/LB1

Departure

Time N/A
Airport Trieste Airport (LIPQ)

Arrival

Time 2026-05-04 15:07
Airport London Stansted Airport (EGSS)
Time Latitude Longitude Altitude Speed Heading
2026-05-04 14:40 51.61441 2.82303 28486 ft 403 kts 292°
2026-05-04 14:40 51.62679 2.78281 28038 ft 399 kts 292°
2026-05-04 14:40 51.63904 2.74298 27599 ft 395 kts 292°
2026-05-04 14:40 51.65116 2.70347 27160 ft 392 kts 292°
2026-05-04 14:41 51.66316 2.66429 26726 ft 389 kts 292°
2026-05-04 14:41 51.67506 2.62538 26309 ft 385 kts 292°
2026-05-04 14:41 51.69852 2.54849 25471 ft 379 kts 293°
2026-05-04 14:42 51.72157 2.47270 24643 ft 374 kts 293°
2026-05-04 14:42 51.73298 2.43512 24234 ft 372 kts 293°
2026-05-04 14:42 51.74429 2.39776 23837 ft 370 kts 293°
2026-05-04 14:43 51.75553 2.36059 23371 ft 368 kts 293°
2026-05-04 14:43 51.76673 2.32353 22910 ft 366 kts 293°
2026-05-04 14:43 51.77782 2.28676 22473 ft 363 kts 294°
2026-05-04 14:43 51.78882 2.25024 22073 ft 360 kts 294°
2026-05-04 14:44 51.79968 2.21410 21673 ft 356 kts 294°
2026-05-04 14:44 51.81044 2.17821 21269 ft 353 kts 294°
2026-05-04 14:44 51.82111 2.14261 20865 ft 351 kts 294°
2026-05-04 14:44 51.83171 2.10722 20481 ft 348 kts 294°
2026-05-04 14:45 51.84223 2.07206 20085 ft 346 kts 294°
2026-05-04 14:45 51.85266 2.03713 19700 ft 344 kts 294°
2026-05-04 14:45 51.86300 2.00232 19304 ft 342 kts 294°
2026-05-04 14:45 51.87330 1.96768 18929 ft 341 kts 294°
2026-05-04 14:46 51.88356 1.93319 18548 ft 340 kts 294°
2026-05-04 14:46 51.89378 1.89878 18161 ft 339 kts 294°
2026-05-04 14:46 51.90395 1.86505 17799 ft 337 kts 295°
2026-05-04 14:46 51.91499 1.83104 17488 ft 338 kts 296°
2026-05-04 14:47 51.92421 1.79637 17176 ft 342 kts 283°
2026-05-04 14:47 51.92848 1.75835 16917 ft 343 kts 276°
2026-05-04 14:47 51.93143 1.72012 16613 ft 340 kts 275°
2026-05-04 14:47 51.93417 1.68226 16318 ft 337 kts 275°
2026-05-04 14:48 51.93691 1.64468 16032 ft 335 kts 275°
2026-05-04 14:48 51.93971 1.60742 15752 ft 332 kts 276°
2026-05-04 14:48 51.94258 1.57037 15470 ft 330 kts 276°
2026-05-04 14:48 51.94547 1.53353 15195 ft 328 kts 276°
2026-05-04 14:49 51.94834 1.49695 14919 ft 327 kts 276°
2026-05-04 14:49 51.95121 1.46046 14642 ft 326 kts 276°
2026-05-04 14:49 51.95407 1.42413 14375 ft 325 kts 276°
2026-05-04 14:49 51.95692 1.38777 14110 ft 326 kts 276°
2026-05-04 14:50 51.95977 1.35130 13825 ft 327 kts 276°
2026-05-04 14:50 51.96262 1.31475 13525 ft 327 kts 276°
2026-05-04 14:50 51.96547 1.27814 13215 ft 326 kts 276°
2026-05-04 14:50 51.96828 1.24187 12916 ft 322 kts 276°
2026-05-04 14:51 51.97103 1.20615 12637 ft 317 kts 276°
2026-05-04 14:51 51.97373 1.17098 12367 ft 313 kts 276°
2026-05-04 14:51 51.97551 1.14779 12192 ft 312 kts 276°
2026-05-04 14:51 51.97816 1.11299 11930 ft 310 kts 276°
2026-05-04 14:52 51.98079 1.07839 11669 ft 309 kts 276°
2026-05-04 14:52 51.98340 1.04389 11407 ft 308 kts 276°
2026-05-04 14:52 51.98599 1.00950 11142 ft 307 kts 276°
2026-05-04 14:52 51.98857 0.97517 10896 ft 306 kts 276°
2026-05-04 14:53 51.99113 0.94088 10634 ft 305 kts 276°
2026-05-04 14:53 51.99366 0.90699 10371 ft 300 kts 276°
2026-05-04 14:53 51.99614 0.87366 10120 ft 295 kts 276°
2026-05-04 14:53 51.99856 0.84096 9970 ft 287 kts 276°
2026-05-04 14:54 52.00090 0.80918 9650 ft 285 kts 276°
2026-05-04 14:54 52.00321 0.77758 9396 ft 280 kts 276°
2026-05-04 14:54 52.00546 0.74667 9130 ft 277 kts 276°
2026-05-04 14:54 52.00775 0.71540 8872 ft 274 kts 276°
2026-05-04 14:55 52.00997 0.68492 8643 ft 270 kts 276°
2026-05-04 14:55 52.01211 0.65529 8421 ft 266 kts 276°
2026-05-04 14:55 52.01427 0.62534 8188 ft 262 kts 275°
2026-05-04 14:55 52.01621 0.59619 7961 ft 257 kts 271°
2026-05-04 14:56 52.01539 0.56787 7766 ft 252 kts 263°
2026-05-04 14:56 52.01353 0.53981 7548 ft 249 kts 263°
2026-05-04 14:56 52.01178 0.51212 7350 ft 245 kts 263°
2026-05-04 14:56 52.01017 0.48473 7143 ft 242 kts 263°
2026-05-04 14:57 52.00868 0.45788 7007 ft 236 kts 264°
2026-05-04 14:57 52.00755 0.43132 6905 ft 236 kts 265°
2026-05-04 14:57 52.00651 0.40469 6814 ft 236 kts 265°
2026-05-04 14:57 52.00546 0.37817 6697 ft 235 kts 265°
2026-05-04 14:58 52.00441 0.35191 6611 ft 232 kts 264°
2026-05-04 14:58 52.00335 0.32587 6505 ft 231 kts 265°
2026-05-04 14:58 52.00228 0.29993 6400 ft 230 kts 265°
2026-05-04 14:58 51.99931 0.27471 6248 ft 227 kts 240°
2026-05-04 14:59 51.98929 0.25542 6183 ft 223 kts 223°
2026-05-04 14:59 51.97786 0.23808 6077 ft 226 kts 223°
2026-05-04 14:59 51.95410 0.20229 5548 ft 240 kts 223°
2026-05-04 15:00 51.94179 0.18374 5230 ft 242 kts 223°
2026-05-04 15:00 51.92942 0.16507 4895 ft 244 kts 223°
2026-05-04 15:00 51.91696 0.14623 4564 ft 246 kts 223°
2026-05-04 15:01 51.89169 0.10805 3861 ft 251 kts 223°
2026-05-04 15:01 51.87888 0.08873 3510 ft 252 kts 223°
2026-05-04 15:01 51.86615 0.06955 3146 ft 248 kts 223°
2026-05-04 15:01 51.85377 0.05083 3010 ft 237 kts 224°
2026-05-04 15:02 51.84191 0.03274 2996 ft 233 kts 224°
2026-05-04 15:02 51.83003 0.01512 2983 ft 229 kts 217°
2026-05-04 15:02 51.81588 0.00617 2985 ft 214 kts 181°
2026-05-04 15:02 51.80216 0.01165 2989 ft 203 kts 143°
2026-05-04 15:03 51.79208 0.02734 2995 ft 201 kts 130°
2026-05-04 15:03 51.78277 0.04399 2999 ft 199 kts 124°
2026-05-04 15:03 51.77897 0.06413 2988 ft 183 kts 77°
2026-05-04 15:03 51.78484 0.08101 2905 ft 172 kts 46°
2026-05-04 15:04 51.79290 0.09524 2672 ft 171 kts 45°
2026-05-04 15:04 51.80127 0.10861 2465 ft 168 kts 43°
2026-05-04 15:04 51.80974 0.12148 2237 ft 166 kts 41°
2026-05-04 15:04 51.81820 0.13423 2001 ft 166 kts 41°
2026-05-04 15:05 51.82644 0.14666 1779 ft 157 kts 40°
2026-05-04 15:05 51.83403 0.15810 1596 ft 144 kts 40°
2026-05-04 15:05 51.84123 0.16894 1386 ft 138 kts 40°
2026-05-04 15:05 51.84819 0.17941 1190 ft 138 kts 40°
2026-05-04 15:06 51.85518 0.19014 985 ft 139 kts 41°
2026-05-04 15:06 51.86237 0.20090 769 ft 144 kts 40°
2026-05-04 15:06 51.86977 0.21193 571 ft 144 kts 40°
2026-05-04 15:07 51.88376 0.23294 346 ft 106 kts 43°
2026-05-04 15:07 51.88766 0.23880 343 ft 58 kts 43°
2026-05-04 15:07 51.89034 0.24280 352 ft 47 kts 43°
2026-05-04 15:07 51.89225 0.24566 351 ft 17 kts 43°
2026-05-04 15:08 51.89230 0.24742 354 ft 15 kts 115°
2026-05-04 15:08 51.89175 0.24857 352 ft 12 kts 134°
2026-05-04 15:08 51.89176 0.24977 353 ft 12 kts 45°
2026-05-04 15:08 51.89229 0.25085 352 ft 13 kts 58°
2026-05-04 15:09 51.89215 0.25217 352 ft 13 kts 128°
2026-05-04 15:09 51.89228 0.25353 355 ft 14 kts 46°
2026-05-04 15:09 51.89296 0.25458 351 ft 13 kts 43°
2026-05-04 15:10 51.89271 0.25690 351 ft 13 kts 133°
2026-05-04 15:10 51.89212 0.25789 351 ft 9 kts 148°
2026-05-04 15:10 51.89164 0.25741 352 ft 0 kts 223°